Voltar ao catálogo

FENGYUN 1C DEB

LostPO
NORAD 31204·DEBRIS·🇨🇳 China

Lançado May 10, 1999 de Taiyuan Satellite Launch Center

Loading…

Próximas Passagens (próximas 24 horas)

TLE

ObsoletoSource: Space-Track

Época: Mar 28, 2011, 04:33 UTC

1 31204U 99025BKJ 11087.18964326 +.00001383 +00000-0 +10408-2 0  9991
2 31204 098.0611 234.0605 0252294 188.1478 178.5437 13.81694359202152

Acompanhe FENGYUN 1C DEB em tempo real com AllMySat

Download on the App Store